Location: Stone Trail Observatory
(44.2408°N, 105.6081°W)
Time: 10:39:28
(UTC-06:00)

Iridium 6 - Visible Passes

Search period start: 27 June 2016 00:00
Search period end: 07 July 2016 00:00
Orbit: 776 x 779 km, 86.4° (Epoch: 27 June)

Date Brightness Start Highest point End Pass type
(mag) Time Alt. Az. Time Alt. Az. Time Alt. Az.
27 Jun 7.2 00:21:13 10° NNE 00:25:17 22° ENE 00:27:06 19° ESE visible
27 Jun 6.0 02:01:16 10° NNW 02:06:14 46° W 02:07:34 38° SW visible
27 Jun 7.8 23:49:04 10° NE 23:51:22 13° ENE 23:53:35 10° E visible
28 Jun 5.4 01:27:33 10° N 01:32:48 83° W 01:34:03 53° S visible
28 Jun 7.8 03:12:04 10° WNW 03:12:35 10° WNW 03:13:07 10° W visible
29 Jun 5.9 00:54:05 10° N 00:59:14 55° E 01:00:32 43° SE visible
29 Jun 7.2 02:35:55 10° NW 02:39:29 19° WNW 02:41:00 17° W visible
30 Jun 6.7 00:20:54 10° NNE 00:25:32 31° ENE 00:27:02 27° ESE visible
30 Jun 6.5 02:01:36 10° NNW 02:06:13 33° W 02:07:29 29° WSW visible
30 Jun 7.4 23:48:09 10° NNE 23:51:43 18° ENE 23:53:31 15° E visible
01 Jul 5.7 01:27:43 10° N 01:32:51 58° W 01:33:59 47° SW visible
02 Jul 5.5 00:54:07 10° N 00:59:22 79° E 01:00:29 56° SSE visible
02 Jul 7.6 02:36:58 10° NW 02:39:20 13° WNW 02:40:57 12° W visible
03 Jul 6.2 00:20:45 10° N 00:25:45 44° E 00:27:00 37° ESE visible
03 Jul 7.0 02:02:06 10° NNW 02:06:10 23° W 02:07:28 21° WSW visible
03 Jul 6.9 23:47:42 10° NNE 23:52:00 25° ENE 23:53:31 22° ESE visible
04 Jul 6.2 01:27:59 10° NNW 01:32:51 41° W 01:33:59 36° WSW visible
04 Jul 7.6 23:15:17 10° NE 23:18:07 14° ENE 23:20:02 12° E visible
05 Jul 5.5 00:54:13 10° N 00:59:27 74° W 01:00:30 56° SSW visible
06 Jul 5.7 00:20:42 10° N 00:25:54 63° E 00:27:02 50° SE visible
06 Jul 7.4 02:02:50 10° NW 02:06:03 17° WNW 02:07:30 15° W visible
06 Jul 6.4 23:47:27 10° NNE 23:52:14 35° E 23:53:34 30° ESE visible
